Location: Albert
(44.3172°N, 77.1347°W)
Time: 08:58:55
(UTC+00:00)

ISS - Visible Passes

Search period start: 18 October 2021 00:00
Search period end: 28 October 2021 00:00
Orbit: 417 x 423 km, 51.6° (Epoch: 17 October)

Date Brightness Start Highest point End Pass type
(mag) Time Alt. Az. Time Alt. Az. Time Alt. Az.
21 Oct -1.2 10:24:50 10° S 10:27:24 21° SE 10:30:00 10° E visible
22 Oct -0.8 09:38:45 10° SSE 09:40:21 13° SE 09:41:57 10° ESE visible
23 Oct -3.1 10:26:14 10° SW 10:29:29 55° SE 10:32:47 10° ENE visible
24 Oct -2.4 09:41:31 29° S 09:42:17 33° SE 09:45:22 10° ENE visible
25 Oct -0.8 08:56:38 16° E 08:56:38 16° E 08:57:46 10° E visible
25 Oct -3.7 10:29:39 21° WSW 10:31:42 60° NNW 10:35:03 10° NE visible
26 Oct -3.7 09:44:37 77° ENE 09:44:37 77° ENE 09:47:46 10° ENE visible
27 Oct -0.8 08:59:28 17° ENE 08:59:28 17° ENE 09:00:25 10° ENE visible
27 Oct -2.7 10:32:27 21° WNW 10:34:04 32° NNW 10:37:10 10° NE visible
